Location: Boiro
(42.6475°N, 8.8834°W)
Time: 03:21:46
(UTC+01:00)

Explorer 7 - Pass Details

Date: 08 December 2021
Orbit: 483 x 674 km, 50.3° (Epoch: 18 January)

Event Time Altitude Azimuth Distance (km) Brightness Sun altitude
Exits shadow 06:32:20 43° 28° (NNE) 805 7.7 -25.0°
Drops below altitude 10° 06:35:23 10° 55° (NE) 1,837 10.0 -24.5°
Sets 06:37:35 0° 59° (ENE) 2,700 11.1 -24.1°
